Location: Asheville, NC
(35.6000°N, 82.5500°W)
Time: 21:55:44
(UTC-04:00)

NANOSAT C BR1 - Visible Passes

Search period start: 25 April 2018 00:00
Search period end: 05 May 2018 00:00
Orbit: 591 x 608 km, 97.9° (Epoch: 25 April)

Date Brightness Start Highest point End Pass type
(mag) Time Alt. Az. Time Alt. Az. Time Alt. Az.
01 May ? 01:38:39 10° NNE 01:38:44 10° NNE 01:38:44 10° NNE visible
02 May ? 01:49:31 10° N 01:49:50 12° N 01:49:50 12° N visible
03 May ? 02:00:28 10° N 02:00:55 13° N 02:00:55 13° N visible
04 May ? 02:11:27 10° N 02:12:00 13° N 02:12:00 13° N visible
